CHINASAT 2E (ZX 2E) (49062 NORAD) Tracking and Keplerian Element Data

This shows tracking and keplerian element data for the satellite.

Feedback or suggestion? Click here.




ElementValue
Catalog49062
NameCHINASAT 2E (ZX 2E)
Epoch Orbit107
Epoch Day300.59702277
Epoch Year2021
RAAN260.7148
Inclination0.1385
Eccentricity0.0002066
Argument of Perigee38.7332
Mean Anonmoly49.7192
Mean Motion1.00272283
Decay Rate-2.85E-06
L11 49062U 21071A 21300.59702277 -.00000285 00000-0 00000-0 0 9993
L22 49062 0.1385 260.7148 0002066 38.7332 49.7192 1.00272283 1073

Live tracking and technical data element details for CHINASAT 2E (ZX 2E) (NORAD 49062). CHINASAT 2E (ZX 2E) can be tracked NOW for your location showing map with azimuth and elevation plus other details from your city location.

Track the satellite on the map from your city or location and see movement details for azimuth, elevation, latitude, longitude, range, height, and movement on the map or in text.







IsCatalogInMostPopularTable: catalog: 49062, numindb: 14
Update: records affected: 1



GetName: 49062 CHINASAT 2E (ZX 2E)

Hit Count: updated at: Thu, 28 Oct 2021 11:43:13 GMT